| time (UTC) | temp C | wind direction | speed KPH | gust KPH | rain 1hr cm | rain 24hr cm | rain mn cm | humidity % | barometer mb |
| 20260503052109 | 11 | 0.0 | 0.0 | 0.00 | 0.00 | 0.00 | 55 | 1022.1 | |
| 20260503050108 | 11 | 0.0 | 0.0 | 0.00 | 0.00 | 0.00 | 55 | 1022.2 | |
| 20260503044107 | 10 | 0.0 | 0.0 | 0.00 | 0.00 | 0.00 | 55 | 1022.2 | |
| 20260503042105 | 10 | 0.0 | 0.0 | 0.00 | 0.00 | 0.00 | 55 | 1022.3 | |
| 20260503040104 | 10 | 0.0 | 0.0 | 0.00 | 0.00 | 0.00 | 54 | 1022.3 | |
| 20260503034103 | 10 | 0.0 | 0.0 | 0.00 | 0.00 | 0.00 | 55 | 1022.4 | |
| 20260503032101 | 10 | 0.0 | 0.0 | 0.00 | 0.00 | 0.00 | 54 | 1022.4 | |
| 20260503030100 | 10 | 0.0 | 0.0 | 0.00 | 0.00 | 0.00 | 54 | 1022.4 | |
| 20260503024059 | 10 | 0.0 | 0.0 | 0.00 | 0.00 | 0.00 | 55 | 1022.4 | |
| 20260503022058 | 11 | 0.0 | 0.0 | 0.00 | 0.00 | 0.00 | 54 | 1022.7 | |
| 20260503020056 | 11 | 0.0 | 0.0 | 0.00 | 0.00 | 0.00 | 54 | 1022.9 | |
| 20260503014055 | 11 | 0.0 | 0.0 | 0.00 | 0.00 | 0.00 | 53 | 1022.9 | |
| 20260503012054 | 11 | 0.0 | 0.0 | 0.00 | 0.00 | 0.00 | 54 | 1023.1 | |
| 20260503010052 | 11 | 0.0 | 0.0 | 0.00 | 0.00 | 0.00 | 54 | 1023.2 | |
| 20260503004051 | 11 | 0.0 | 0.0 | 0.00 | 0.00 | 0.00 | 53 | 1023.3 | |
| 20260503002050 | 11 | 0.0 | 0.0 | 0.00 | 0.00 | 0.00 | 53 | 1023.5 | |
| 20260503000049 | 11 | 0.0 | 0.0 | 0.00 | 0.00 | 0.00 | 52 | 1023.6 | |
| 20260502234047 | 11 | 0.0 | 0.0 | 0.00 | 0.00 | 0.00 | 52 | 1023.8 | |
| 20260502232046 | 11 | 0.0 | 0.0 | 0.00 | 0.00 | 0.00 | 52 | 1023.8 | |
| 20260502230044 | 12 | 0.0 | 0.0 | 0.00 | 0.00 | 0.00 | 52 | 1024.0 | |
| 20260502224043 | 12 | 0.0 | 0.0 | 0.00 | 0.00 | 0.00 | 51 | 1023.9 | |
| 20260502222042 | 12 | 0.0 | 0.0 | 0.00 | 0.00 | 0.00 | 50 | 1024.0 | |
| 20260502220040 | 12 | 0.0 | 0.0 | 0.00 | 0.00 | 0.00 | 51 | 1024.0 | |
| 20260502214039 | 12 | 0.0 | 0.0 | 0.00 | 0.00 | 0.00 | 49 | 1023.9 | |
| 20260502212037 | 12 | 0.0 | 0.0 | 0.00 | 0.00 | 0.00 | 49 | 1023.8 | |
| 20260502210036 | 13 | 0.0 | 0.0 | 0.00 | 0.00 | 0.00 | 46 | 1023.7 | |
| 20260502204035 | 13 | 0.0 | 0.0 | 0.00 | 0.00 | 0.00 | 46 | 1023.7 | |
| 20260502202034 | 13 | 0.0 | 0.0 | 0.00 | 0.00 | 0.00 | 44 | 1023.6 | |
| 20260502200032 | 14 | 0.0 | 0.0 | 0.00 | 0.00 | 0.00 | 43 | 1023.6 | |
| 20260502194031 | 15 | 0.0 | 0.0 | 0.00 | 0.00 | 0.00 | 42 | 1023.4 | |
| 20260502192029 | 15 | 0.0 | 0.0 | 0.00 | 0.00 | 0.00 | 40 | 1023.1 | |
| 20260502190028 | 15 | 0.0 | 0.0 | 0.00 | 0.00 | 0.00 | 40 | 1023.0 | |
| 20260502184027 | 15 | 0.0 | 0.0 | 0.00 | 0.00 | 0.00 | 39 | 1022.6 | |
| 20260502182025 | 16 | 0.0 | 0.0 | 0.00 | 0.00 | 0.00 | 38 | 1022.3 | |
| 20260502164018 | 24 | 0.0 | 0.0 | 0.00 | 0.00 | 0.00 | 25 | 1021.7 | |
| 20260502162017 | 25 | 0.0 | 0.0 | 0.00 | 0.00 | 0.00 | 22 | 1021.8 | |
| 20260502152013 | 25 | 0.0 | 0.0 | 0.00 | 0.00 | 0.00 | 22 | 1022.3 | |
| 20260502121955 | 19 | 0.0 | 0.0 | 0.00 | 0.00 | 0.00 | 35 | 1024.8 | |
| 20260502113947 | 17 | 0.0 | 0.0 | 0.00 | 0.00 | 0.00 | 40 | 1025.4 | |
| 20260502111946 | 17 | 0.0 | 0.0 | 0.00 | 0.00 | 0.00 | 36 | 1025.8 | |
| 20260502105944 | 17 | 0.0 | 0.0 | 0.00 | 0.00 | 0.00 | 41 | 1026.1 | |
| 20260502103943 | 16 | 0.0 | 0.0 | 0.00 | 0.00 | 0.00 | 40 | 1026.4 | |
| 20260502101942 | 16 | 0.0 | 0.0 | 0.00 | 0.00 | 0.00 | 45 | 1026.7 | |
| 20260502065928 | 10 | 0.0 | 0.0 | 0.00 | 0.00 | 0.00 | 61 | 1028.8 | |
| 20260502063927 | 10 | 0.0 | 0.0 | 0.00 | 0.00 | 0.00 | 60 | 1028.8 | |
| 20260502061925 | 10 | 0.0 | 0.0 | 0.00 | 0.00 | 0.00 | 59 | 1029.0 | |
| 20260502055924 | 9 | 0.0 | 0.0 | 0.00 | 0.00 | 0.00 | 60 | 1029.1 | |
| 20260502053923 | 8 | 0.0 | 0.0 | 0.00 | 0.00 | 0.00 | 62 | 1029.2 |